GFSFLT1_850_temp_276.txt.gz
Temp
35 34 34 33 32 31 30 29 28 27 26 24 23 22 21 20 20 20 20 20 19 19 18 18 19 19 19 19 19 18 18 17 18
35 35 34 34 33 32 31 29 28 27 26 24 23 22 21 20 20 20 20 19 19 19 19 19 19 18 19 19 18 18 18 18 18
36 36 35 35 34 32 31 30 28 27 26 24 23 22 21 20 20 20 20 19 19 19 19 19 18 18 18 19 18 18 18 18 18
36 35 35 34 34 33 31 30 29 27 26 25 23 22 21 21 20 20 19 19 19 19 19 18 18 18 18 18 18 19 18 18 18
35 34 34 33 33 32 31 30 29 27 25 24 23 23 22 21 20 20 20 19 19 19 18 18 18 18 17 18 18 18 18 18 19
33 34 33 33 32 31 30 29 28 27 25 24 24 23 22 21 21 20 19 19 19 18 18 18 18 18 18 19 18 18 18 18 18
34 33 33 33 32 31 29 28 27 26 24 24 24 23 22 22 21 20 19 18 19 19 19 18 18 18 19 19 19 19 19 18 18
34 34 32 33 32 30 29 27 26 25 24 23 23 23 22 22 21 20 19 19 19 19 19 19 19 19 19 19 19 19 19 18 18
34 34 34 33 31 30 28 27 26 25 23 23 23 23 22 22 21 20 20 20 19 19 19 19 19 19 19 19 19 19 19 19 19
32 32 32 32 31 29 28 26 25 24 23 23 22 22 22 21 21 21 20 20 20 19 19 19 19 19 19 19 19 19 19 18 18
30 30 30 30 30 30 28 27 25 24 23 23 22 22 21 21 21 20 20 20 20 20 19 19 19 19 19 19 19 19 19 19 18
27 27 28 28 29 30 29 28 26 25 23 22 21 21 21 20 21 20 20 19 20 20 20 19 20 19 19 19 18 19 19 19 19
26 26 26 27 27 28 28 27 26 25 24 23 22 21 20 20 20 20 20 20 19 19 19 19 19 19 19 19 19 18 18 19 19
26 25 26 26 26 26 26 26 26 25 24 24 23 22 21 20 20 20 20 20 20 19 19 19 19 19 19 19 18 18 18 19 19
26 25 25 25 25 24 23 24 24 24 24 24 23 22 21 21 21 20 20 20 20 19 19 19 19 19 19 19 18 19 19 18 19
25 24 24 23 24 22 22 22 21 22 22 23 23 22 21 20 20 20 20 19 18 18 17 18 18 18 19 19 18 18 19 19 19
24 23 23 23 22 22 21 20 21 20 20 21 21 21 20 19 19 18 18 20 19 19 19 17 18 17 17 18 18 18 18 20 19
23 23 22 21 21 20 19 19 19 19 18 19 20 20 20 19 18 18 17 17 17 17 17 18 18 17 17 17 18 18 18 17 19
20 20 20 20 19 19 19 19 18 18 17 17 17 18 18 18 18 18 18 17 17 16 17 16 18 17 16 17 17 16 16 16 17
19 19 19 18 18 18 18 18 17 17 16 16 17 17 18 17 17 17 17 16 16 15 15 15 16 16 16 15 16 15 16 15 15

GFSFLT1_850_temp_279.txt.gz
Temp
32 31 31 31 30 29 28 28 27 26 26 25 24 24 23 22 21 20 20 20 20 19 19 20 19 19 19 19 19 18 18 18 18
34 33 32 31 31 30 29 28 28 27 26 26 25 24 23 22 21 21 20 20 19 19 19 19 20 21 20 18 18 18 18 17 17
33 34 32 31 32 31 30 29 28 28 27 26 25 24 23 22 21 21 20 20 19 19 19 18 19 19 19 18 18 18 18 17 17
34 34 34 33 33 31 31 30 29 28 27 26 25 24 23 21 21 21 20 20 19 19 19 19 19 19 19 18 18 18 18 18 18
34 34 34 33 33 32 31 30 29 28 27 26 25 24 23 22 21 20 20 20 19 19 19 19 19 19 19 18 19 18 18 18 18
34 34 33 33 32 31 31 30 29 28 27 26 25 24 22 22 21 21 20 19 19 19 19 19 19 19 19 19 19 18 18 18 18
33 33 33 33 32 31 31 30 29 28 27 26 24 23 22 22 21 21 20 20 19 19 19 18 18 18 18 18 19 18 18 18 18
33 33 33 32 32 31 30 29 28 28 27 26 24 23 23 22 22 21 21 20 19 19 18 19 19 19 19 19 19 19 19 19 18
32 32 32 32 32 31 30 29 28 27 26 25 24 23 23 22 22 21 21 20 20 20 19 19 19 19 19 19 19 19 19 19 19
32 32 31 31 31 31 30 29 28 27 26 25 23 23 23 22 22 21 21 20 20 20 20 19 19 19 19 20 19 19 18 18 18
31 31 30 30 29 30 30 29 28 26 25 24 23 22 22 22 21 21 21 20 20 20 19 19 20 19 19 19 20 19 19 18 18
29 29 28 28 29 29 29 28 27 26 25 23 23 22 22 21 21 21 20 20 20 20 19 19 19 19 19 19 19 19 19 19 18
27 27 27 27 28 29 28 27 26 25 24 24 23 23 23 22 21 21 20 20 19 19 19 19 19 19 19 19 19 19 19 18 19
26 26 26 27 27 27 26 26 26 25 25 25 24 23 23 22 22 21 20 20 20 20 19 18 18 18 19 18 19 20 19 18 18
25 25 25 25 26 26 26 26 25 24 24 24 24 24 24 22 21 21 20 20 20 19 19 19 20 19 19 18 17 18 19 18 18
24 24 24 24 24 25 24 24 24 24 23 22 22 22 21 21 20 20 19 18 18 19 20 20 20 18 19 19 17 17 17 18 18
23 23 23 22 22 22 22 22 22 22 21 21 21 21 20 20 20 19 19 19 18 18 20 19 20 18 18 18 19 17 16 17 17
23 23 22 22 21 20 20 20 20 20 20 20 20 20 19 19 19 18 19 19 18 17 17 18 18 17 18 18 19 17 16 17 17
22 21 21 21 20 19 19 18 18 18 19 19 19 19 18 18 18 18 17 17 16 16 16 16 16 16 16 16 17 16 17 18 18
19 19 19 19 19 18 18 18 18 17 17 18 18 18 18 18 17 17 17 16 16 16 16 16 15 15 14 15 16 16 18 17 16

GFSFLT1_850_temp_285.txt.gz
Temp
27 27 27 28 29 29 27 26 26 25 25 24 24 24 23 22 22 21 21 21 21 20 20 20 20 20 20 20 18 18 18 17 17
27 30 28 29 29 29 28 27 27 26 25 25 24 24 23 22 22 22 21 20 20 20 20 20 20 20 20 19 19 19 18 17 17
29 29 29 30 29 29 29 28 27 27 26 26 25 24 23 22 23 22 22 21 20 20 19 19 19 19 19 19 19 18 18 18 17
30 29 30 30 31 30 29 28 28 28 27 27 26 25 24 24 23 23 22 21 20 20 19 19 19 20 20 19 19 18 18 18 17
31 31 30 32 32 31 30 28 28 29 29 28 27 27 25 24 24 23 21 21 20 20 19 19 19 19 19 18 18 18 18 18 18
30 32 32 29 31 31 30 29 30 30 30 29 28 27 26 24 24 22 21 21 20 20 19 19 19 19 19 18 18 18 18 18 18
28 32 32 31 30 30 31 30 31 31 30 29 28 27 26 24 23 22 21 21 20 20 19 19 19 19 19 19 18 18 18 18 18
29 28 30 32 32 31 31 30 31 31 30 29 28 26 25 24 23 22 21 20 20 20 19 19 19 18 18 18 18 18 18 18 18
30 30 32 31 30 32 31 30 31 31 30 28 27 26 25 24 23 22 21 20 20 20 19 19 19 19 18 18 18 18 18 18 19
26 31 32 32 31 32 32 31 31 30 29 28 26 26 25 24 23 22 22 21 20 20 20 19 19 19 19 19 19 18 18 18 18
25 30 31 32 32 31 32 30 30 29 28 27 26 25 25 24 23 23 22 21 21 20 20 20 20 20 20 19 19 20 21 20 19
27 26 31 31 31 33 32 29 30 28 28 27 25 24 24 24 24 23 22 21 21 21 20 20 20 19 19 19 20 19 18 19 19
24 27 27 31 31 31 31 28 28 28 27 26 25 24 24 23 23 23 22 22 21 21 20 20 20 19 19 19 19 18 18 18 18
27 25 27 28 28 29 29 28 28 27 26 25 25 24 23 22 22 22 22 21 20 20 20 19 19 19 19 19 19 18 18 18 18
25 26 27 28 29 29 28 28 27 27 26 25 24 23 23 23 23 22 21 20 20 20 19 19 19 19 19 19 19 18 18 18 18
19 22 24 22 28 28 27 26 26 26 25 24 24 23 23 22 22 21 21 20 20 20 20 20 20 19 20 20 19 19 18 18 17
18 18 18 18 19 25 26 25 25 25 24 23 23 23 22 22 21 21 20 20 20 19 19 19 19 18 19 19 18 18 18 18 18
18 17 19 18 17 17 23 23 23 23 23 23 23 22 22 21 20 20 20 20 20 18 18 18 17 17 17 17 16 17 17 17 18
18 19 22 23 19 17 16 20 22 22 22 22 22 21 20 20 20 19 19 18 18 18 18 17 17 16 16 15 16 16 17 16 16
18 18 20 21 16 16 17 18 21 21 21 22 21 21 20 20 19 19 18 18 17 17 16 16 16 16 16 15 16 15 15 15 15

GFSFLT1_850_temp_291.txt.gz
Temp
27 25 25 25 25 26 27 26 26 25 26 25 24 24 23 23 23 22 22 21 21 20 20 20 20 20 20 20 20 20 19 19 19
28 26 26 25 26 26 27 28 27 27 26 26 25 25 24 24 23 23 23 22 21 21 20 20 20 20 20 19 20 20 20 19 18
29 27 27 26 27 28 28 29 28 27 27 26 26 25 25 25 24 24 23 22 22 21 21 20 19 20 19 19 19 18 18 18 18
27 27 28 29 27 29 28 29 29 28 27 26 26 26 26 25 25 24 24 23 22 22 21 21 20 20 19 19 18 18 19 18 19
25 26 29 27 29 29 28 29 29 29 28 27 27 27 26 26 25 24 24 23 23 22 22 21 20 20 19 19 19 18 19 19 19
24 27 26 29 26 29 30 29 29 29 29 29 28 27 27 26 26 24 24 23 23 22 21 20 20 19 19 19 19 18 18 18 18
24 24 27 27 29 28 29 30 30 30 30 30 29 28 28 27 26 25 24 23 22 22 21 20 20 20 19 19 18 18 18 18 18
23 23 25 27 28 29 28 29 29 29 29 30 30 29 28 27 26 25 24 23 23 22 21 20 20 20 19 19 19 19 19 19 18
22 22 23 25 27 28 29 29 29 29 29 30 30 29 28 27 26 24 24 24 23 22 21 21 20 20 20 19 19 19 19 19 19
21 21 21 25 26 28 28 28 28 27 29 27 30 29 28 27 26 25 24 24 23 22 21 21 20 20 20 19 19 19 18 18 18
20 20 22 24 26 27 27 27 29 27 25 28 28 30 29 28 26 25 24 23 23 22 21 21 20 20 20 20 20 19 19 18 18
20 19 22 22 24 27 27 28 28 27 29 27 27 30 29 28 27 25 24 24 23 22 21 21 21 20 20 20 20 19 19 18 18
22 19 18 21 23 26 27 28 28 29 30 27 28 29 29 28 26 25 24 23 23 22 21 21 21 20 20 20 19 19 18 18 18
21 20 18 21 20 23 25 26 28 28 27 28 29 29 29 28 26 25 23 23 22 21 21 20 20 20 20 19 19 19 19 18 18
18 21 17 20 17 20 23 25 26 29 31 28 26 29 28 27 25 24 23 22 21 21 20 20 19 19 19 19 19 18 19 18 18
16 17 17 18 18 19 21 23 26 27 28 26 26 26 27 25 24 23 22 21 21 21 20 20 19 19 19 19 19 19 19 19 18
15 15 17 17 17 18 20 22 23 23 25 24 24 24 24 23 22 22 21 20 20 20 20 20 19 19 19 19 19 19 18 18 18
15 16 17 17 17 18 19 19 21 23 23 24 23 22 21 21 22 21 21 20 20 20 20 19 19 19 19 19 19 18 17 17 17
15 16 16 17 17 17 18 18 20 21 22 23 23 24 21 17 21 21 21 20 20 19 19 19 18 18 18 17 17 16 16 15 16
16 15 16 16 16 16 15 18 20 21 22 23 23 23 24 18 18 21 19 19 19 19 18 17 17 17 17 16 15 15 15 15 15